Wind_Speed
20 12 14 6 8 5 6 3 9 9 10 7 5 4 4 9 10 15 19 27 30 34 37 41 43 46 35 31 28 27 25 26 25 24 23 21 21 18 15 12 10 8 7 6 9 6 9 8 8
18 12 7 6 10 5 8 14 13 12 9 6 3 3 5 8 9 13 21 28 35 38 37 41 43 43 29 28 27 27 27 20 21 20 20 21 19 20 21 17 14 11 7 8 9 8 4 5 6
14 11 5 14 11 14 18 14 14 13 9 6 4 2 5 7 9 12 23 29 34 37 39 43 42 37 29 27 29 27 28 25 17 17 23 25 19 18 22 21 17 11 9 8 7 6 2 4 5
21 20 9 14 4 9 22 10 12 10 5 6 4 2 3 9 14 19 24 30 34 36 40 41 42 31 30 26 30 30 28 25 17 20 20 23 25 19 20 22 18 13 10 8 5 6 6 6 5
23 17 13 20 16 13 10 10 13 10 8 9 5 4 7 15 18 22 26 29 33 35 38 39 40 27 29 26 27 29 30 26 27 27 26 23 25 24 22 21 19 14 11 12 11 9 9 8 8
27 20 16 20 18 24 16 17 17 17 12 8 6 7 13 17 19 22 27 29 32 33 37 40 35 26 28 26 23 29 33 32 32 30 28 25 21 25 26 24 17 14 11 10 14 15 14 13 9
28 22 29 28 32 22 15 17 19 20 11 10 8 12 14 17 20 23 24 28 31 32 33 40 31 26 26 26 26 30 32 34 33 30 22 32 25 26 25 23 15 12 12 8 12 14 13 13 11
27 21 13 23 28 27 19 18 18 21 15 12 12 16 19 21 22 22 23 28 31 31 31 36 28 25 24 24 25 29 29 31 34 29 28 33 37 32 30 17 19 14 9 10 14 14 13 11 13
26 27 19 18 25 21 16 16 21 20 19 15 19 20 20 22 23 21 22 26 29 28 30 32 25 24 23 24 26 28 27 29 30 31 33 38 43 33 25 19 19 10 4 5 12 14 14 10 12
31 31 35 28 24 26 17 17 19 23 23 19 17 17 19 20 20 20 22 25 28 26 29 28 23 21 22 23 24 26 30 31 28 29 36 42 36 29 25 22 19 18 9 4 4 3 8 7 8
35 39 38 31 29 27 20 20 20 21 20 18 18 16 21 21 18 18 20 24 23 24 27 25 19 18 19 20 21 26 31 35 36 36 47 45 36 31 30 29 23 26 26 10 6 6 3 1 3
40 38 41 35 34 36 34 29 27 25 18 16 18 19 19 17 10 16 18 20 23 22 24 21 16 15 15 16 18 26 33 36 35 39 50 46 39 32 31 33 33 33 27 21 10 3 3 4 5
45 48 46 41 41 37 29 32 37 35 28 32 24 23 20 18 12 15 18 21 18 19 21 17 13 12 13 14 18 27 33 37 40 41 48 47 41 36 35 36 37 30 27 28 27 19 10 2 9
57 51 51 49 49 44 40 36 35 39 41 35 26 23 18 15 13 17 19 16 14 16 17 13 10 9 10 13 18 25 32 36 39 40 46 51 45 37 37 37 37 34 29 29 26 25 21 18 16
60 54 56 53 53 50 44 43 43 43 38 34 25 22 20 16 12 15 16 12 11 13 14 9 6 6 9 11 18 23 30 31 36 42 46 54 44 40 36 37 38 40 38 35 33 33 31 26 24
58 57 57 54 52 49 48 47 45 39 34 27 24 25 23 17 17 13 13 10 9 12 10 4 3 4 7 10 16 20 26 29 31 37 43 48 48 42 40 36 35 33 36 35 32 30 29 28 27
55 56 58 56 56 51 48 44 42 37 32 29 28 25 21 20 21 15 12 10 9 10 6 1 1 2 4 9 14 18 23 27 31 34 38 44 48 43 45 40 34 32 31 32 32 29 25 25 23
58 54 54 52 54 50 47 45 43 40 36 34 31 26 21 21 22 18 15 13 11 10 5 4 4 3 2 7 13 17 21 23 29 32 35 41 45 47 46 43 41 36 32 31 31 28 27 25 25
57 57 55 54 54 52 50 49 47 43 41 36 31 30 24 21 25 24 23 17 15 12 9 7 8 5 2 4 11 16 20 22 28 27 36 38 41 44 46 50 45 43 41 38 32 29 30 29 28
57 58 61 58 57 56 53 51 54 47 42 38 35 31 27 18 16 14 17 17 17 15 12 11 10 8 4 3 9 16 19 21 24 27 30 33 36 40 44 46 47 47 46 41 40 39 33 31 31
57 59 62 62 60 59 57 54 53 45 39 36 36 34 31 26 23 14 16 18 18 17 14 16 14 11 7 2 8 15 18 20 20 26 32 32 30 35 38 40 41 44 46 47 47 45 42 39 37
52 58 60 60 58 59 57 56 53 48 45 40 37 36 33 32 33 32 28 21 19 17 19 20 19 15 10 5 8 14 19 19 17 19 23 27 29 31 35 37 39 40 39 40 41 44 46 43 38
48 54 56 55 55 56 56 55 54 50 44 43 39 37 38 36 33 30 27 25 21 19 22 24 22 18 13 8 7 13 18 20 20 26 27 24 27 30 32 35 37 39 41 42 41 39 42 45 47
53 51 50 49 51 53 56 55 50 47 43 43 40 39 39 38 35 31 28 26 23 23 27 27 24 21 16 11 8 10 14 17 19 23 24 26 26 28 32 33 34 35 37 40 43 43 40 41 44
49 47 45 45 43 49 51 49 48 41 42 42 41 39 38 37 34 31 33 30 26 31 34 31 28 23 18 13 10 8 10 13 15 18 21 22 25 29 32 33 35 36 37 39 41 42 44 40 41
49 48 44 43 48 47 45 46 44 40 40 38 36 35 37 36 35 34 31 30 29 32 36 34 31 25 20 15 11 8 6 9 11 12 16 18 21 26 29 32 35 37 40 40 40 41 44 45 45
50 43 52 51 53 50 44 44 39 36 34 32 35 35 32 31 33 27 30 28 30 36 37 38 34 28 22 18 14 10 6 4 5 8 12 15 19 22 25 29 33 36 39 41 42 43 43 46 48
51 54 52 49 50 47 43 48 44 37 34 33 29 27 30 32 29 29 32 29 32 36 37 37 35 31 24 21 17 12 8 5 2 4 8 12 16 20 24 27 30 34 39 42 43 45 46 46 48
55 52 47 47 51 45 40 42 45 44 35 38 29 33 35 36 33 31 31 30 33 36 37 39 37 34 30 25 20 16 11 8 3 3 6 10 15 18 22 26 30 34 38 42 43 45 46 48 49
58 57 55 45 47 46 44 47 51 48 42 41 33 40 41 36 35 33 32 30 32 36 40 42 39 37 32 27 24 20 14 11 8 7 8 9 12 18 22 26 30 34 37 40 44 45 46 47 50
Wind_Direction
183 193 169 56 62 268 153 243 173 152 125 119 115 71 47 53 37 358 352 356 356 354 353 353 355 359 4 8 10 11 15 21 24 27 32 35 31 26 11 353 346 335 297 302 313 268 258 292 260
195 195 203 170 162 214 225 210 176 156 152 155 159 339 37 40 16 344 346 358 -0 353 352 352 358 2 9 8 12 14 20 3 20 39 34 29 21 25 24 16 3 -0 314 284 300 290 273 262 245
214 215 124 195 181 207 209 188 184 185 181 211 217 331 321 338 322 327 337 348 353 351 354 353 1 3 6 6 13 14 10 11 18 27 20 20 12 12 6 9 1 340 347 315 281 284 253 273 244
220 218 189 179 208 236 204 246 211 209 250 254 231 340 307 319 326 324 332 346 346 349 355 357 3 4 3 6 20 21 7 12 22 12 3 8 6 356 352 350 337 328 295 298 253 224 226 243 246
211 200 183 193 209 233 268 241 248 244 264 265 251 317 337 321 328 327 335 349 346 353 355 0 4 3 4 5 10 17 12 8 6 3 0 355 1 358 349 339 336 317 294 262 261 246 249 257 255
192 186 176 200 210 236 255 261 231 236 263 270 263 307 321 314 317 325 334 339 352 355 354 3 3 3 3 4 0 5 6 7 2 3 7 4 346 347 340 332 320 311 280 261 243 249 256 253 255
187 187 178 196 218 225 246 256 254 235 239 250 256 290 290 295 311 325 332 341 353 353 358 3 3 4 3 3 3 5 2 4 4 6 18 4 355 343 341 328 317 299 265 245 233 235 242 252 258
189 186 201 217 212 217 248 252 241 227 241 237 257 271 286 290 309 322 339 345 352 348 -0 3 6 4 6 7 9 7 3 6 17 18 9 358 359 346 336 343 324 311 262 223 234 233 232 234 236
179 174 174 193 193 217 231 226 234 237 241 251 269 278 288 296 305 329 339 346 350 346 3 3 7 5 6 11 10 9 8 10 12 17 7 354 349 347 353 353 358 355 300 180 232 230 237 239 246
201 180 185 206 225 226 228 210 212 229 243 272 270 284 287 297 308 323 337 341 346 346 2 7 8 7 11 17 19 19 17 14 13 6 2 355 -0 8 25 30 19 34 45 109 172 205 239 258 258
199 200 205 211 221 221 191 220 223 230 232 274 267 277 283 293 313 318 327 332 338 342 359 11 6 9 20 30 25 22 24 23 27 24 23 18 18 28 36 41 39 42 52 70 108 103 165 91 278
205 194 206 206 214 219 217 229 240 231 252 274 279 288 287 297 300 309 315 328 333 340 356 14 4 14 27 35 21 25 31 30 24 26 24 24 28 37 40 45 48 50 55 63 75 110 201 227 347
222 211 214 215 215 216 225 247 250 238 257 282 286 282 290 293 295 295 310 327 328 339 358 14 8 21 31 33 21 31 33 31 30 30 28 30 36 43 41 49 53 54 56 56 62 63 57 339 317
228 224 221 220 213 228 248 248 242 237 267 275 276 273 273 275 290 297 301 314 317 339 358 11 11 32 29 31 22 34 35 32 31 30 34 38 40 48 53 57 55 58 65 63 63 63 68 71 68
232 232 229 225 229 232 242 246 245 252 259 265 270 268 264 268 276 279 291 301 308 337 356 12 10 37 31 26 36 36 36 31 31 35 37 40 42 48 56 60 63 61 60 60 61 58 56 65 69
234 230 233 236 237 239 237 242 242 244 250 249 259 265 267 271 269 270 281 282 294 328 347 5 28 47 30 26 38 36 38 31 32 35 38 40 43 46 52 55 57 62 62 59 56 58 56 61 59
224 230 232 242 244 241 241 244 244 239 242 242 247 249 264 273 268 262 264 260 282 308 327 288 127 84 34 26 36 36 40 30 38 35 41 43 44 50 51 53 55 53 49 50 47 47 47 41 44
220 225 232 236 238 243 247 247 242 233 235 237 244 242 249 259 272 274 260 254 271 288 283 207 171 148 41 29 41 38 45 34 39 42 46 46 45 50 51 50 53 55 54 48 42 42 43 36 30
220 223 229 233 236 238 241 244 244 239 233 237 238 242 239 253 263 263 266 254 261 272 246 199 182 178 197 35 44 44 50 43 44 45 48 46 45 48 50 52 52 51 48 48 50 46 42 36 26
220 222 226 229 231 234 237 240 243 242 237 233 235 241 241 236 257 240 240 255 253 254 237 195 183 194 207 51 51 54 57 51 47 48 47 46 44 45 46 48 50 51 50 46 42 39 36 31 26
221 222 225 227 228 232 235 238 243 244 240 238 241 239 241 232 226 234 269 262 250 251 231 193 188 197 194 135 67 64 63 57 54 52 48 45 42 41 42 44 43 45 44 44 44 41 36 33 29
222 222 223 226 227 232 233 236 236 238 239 236 235 241 239 234 239 246 259 264 247 240 216 194 190 195 196 163 84 74 69 62 52 43 35 40 41 39 37 40 40 39 38 37 36 35 35 33 31
220 222 222 226 229 231 234 234 236 237 238 238 232 233 238 238 240 246 252 256 233 224 212 196 192 194 199 181 122 87 74 64 53 53 49 47 38 40 37 36 35 35 33 31 30 27 27 27 28
225 224 224 224 226 229 233 236 236 236 233 236 236 234 231 233 239 237 245 240 223 206 198 196 195 195 201 190 146 104 81 65 50 50 48 43 40 39 38 36 34 34 32 30 27 25 23 21 20
228 229 228 227 228 229 231 230 235 234 232 231 234 232 228 229 226 239 240 223 218 201 192 194 199 197 201 192 160 128 92 73 57 46 47 41 36 35 34 32 30 27 29 29 25 21 20 16 15
223 223 224 218 224 230 231 234 232 226 229 230 231 223 229 228 243 238 226 221 216 209 192 191 197 198 203 195 177 155 116 85 65 44 39 31 27 29 29 27 25 23 21 20 20 19 19 15 10
223 223 222 217 217 223 226 232 230 232 224 220 224 221 229 234 230 224 220 212 212 199 199 192 195 197 200 197 192 182 163 122 73 45 28 20 16 19 19 23 19 17 15 16 14 11 11 15 12
223 222 222 220 226 223 217 223 227 221 226 215 224 226 216 213 217 221 217 200 206 203 200 198 195 199 198 202 203 198 201 195 111 29 16 5 7 5 9 12 13 12 12 10 8 8 5 6 9
228 225 226 221 224 226 214 212 217 213 224 238 214 211 215 207 205 205 205 197 205 203 203 202 201 199 202 201 207 208 216 229 240 306 345 350 352 357 359 1 3 5 7 4 2 3 0 1 3
227 224 224 219 222 222 218 208 208 211 225 229 219 209 204 198 199 193 198 197 203 206 204 207 207 205 206 207 210 215 222 237 256 282 304 329 342 348 352 353 354 357 2 -0 359 357 357 357 359
Height
11009 11010 11011 11013 11015 11014 11013 11013 11012 11012 11012 11012 11013 11012 11010 11008 11007 11007 11005 11001 10997 10993 10988 10981 10975 10969 10963 10958 10952 10946 10942 10939 10934 10931 10928 10925 10922 10920 10920 10918 10917 10915 10915 10917 10917 10915 10915 10916 10914
11008 11012 11012 11012 11018 11011 11014 11012 11012 11013 11012 11013 11013 11014 11012 11009 11007 11006 11004 11001 10997 10992 10987 10980 10974 10968 10962 10957 10952 10947 10944 10940 10937 10934 10931 10928 10925 10922 10920 10919 10919 10918 10916 10915 10914 10913 10913 10912 10912
11009 11011 11014 11012 11015 11014 11014 11013 11013 11013 11013 11013 11013 11013 11014 11012 11008 11006 11003 11001 10997 10993 10986 10980 10975 10968 10962 10957 10953 10948 10944 10940 10939 10936 10933 10930 10926 10923 10921 10918 10918 10917 10917 10913 10911 10909 10909 10909 10910
11009 11011 11013 11015 11014 11014 11014 11014 11015 11015 11015 11014 11015 11014 11014 11012 11009 11007 11003 11001 10997 10992 10986 10981 10975 10968 10963 10959 10955 10950 10946 10942 10939 10937 10932 10929 10927 10924 10920 10918 10916 10914 10913 10910 10910 10907 10907 10908 10909
11006 11010 11012 11014 11013 11015 11016 11016 11017 11016 11015 11016 11015 11014 11014 11012 11009 11008 11005 11002 10998 10992 10987 10983 10976 10969 10964 10961 10956 10951 10947 10943 10940 10937 10933 10929 10927 10923 10919 10915 10912 10910 10910 10909 10909 10908 10909 10908 10910
11005 11010 11011 11013 11011 11012 11015 11015 11015 11016 11016 11016 11017 11015 11014 11013 11010 11008 11006 11002 10998 10994 10988 10985 10978 10971 10966 10963 10957 10954 10950 10945 10941 10937 10932 10928 10926 10921 10916 10911 10907 10905 10906 10906 10907 10907 10907 10908 10909
11004 11007 11008 11008 11010 11012 11014 11015 11015 11015 11016 11017 11017 11015 11014 11012 11010 11009 11007 11002 10998 10994 10990 10987 10980 10974 10969 10965 10960 10956 10952 10946 10942 10937 10931 10929 10923 10917 10911 10905 10901 10899 10900 10903 10904 10901 10903 10906 10907
11001 11004 11005 11006 11007 11009 11011 11012 11014 11015 11016 11016 11015 11014 11013 11013 11009 11008 11007 11004 11000 10996 10993 10988 10983 10977 10972 10969 10965 10960 10956 10950 10944 10940 10935 10928 10921 10913 10906 10901 10895 10894 10896 10899 10897 10897 10901 10903 10903
10998 10999 11002 11004 11005 11008 11009 11011 11012 11014 11014 11015 11015 11014 11013 11012 11010 11009 11007 11005 11001 10998 10995 10990 10984 10980 10975 10972 10968 10964 10959 10953 10948 10942 10937 10928 10919 10909 10903 10899 10893 10890 10891 10896 10892 10895 10898 10902 10903
10995 10996 10998 11000 11002 11005 11007 11009 11010 11012 11013 11014 11013 11013 11011 11011 11011 11009 11007 11006 11003 11000 10996 10992 10987 10983 10979 10976 10973 10969 10962 10956 10951 10945 10938 10929 10917 10909 10904 10900 10894 10890 10891 10891 10892 10894 10896 10900 10904
10988 10991 10992 10994 11000 11001 11002 11004 11006 11008 11010 11011 11011 11012 11011 11011 11010 11009 11007 11005 11004 11001 10998 10993 10990 10987 10983 10980 10977 10972 10966 10959 10953 10948 10941 10927 10917 10911 10908 10903 10898 10892 10891 10892 10894 10897 10900 10901 10903
10984 10987 10988 10991 10996 10997 10999 11002 11005 11006 11008 11010 11010 11011 11009 11009 11009 11008 11007 11006 11004 11002 10999 10995 10993 10991 10987 10985 10981 10976 10969 10962 10957 10952 10941 10931 10921 10916 10914 10909 10901 10896 10896 10897 10899 10900 10902 10902 10902
10977 10981 10984 10988 10992 10997 10998 11001 11003 11004 11006 11006 11007 11009 11008 11008 11007 11006 11006 11005 11004 11002 10999 10997 10996 10994 10991 10989 10985 10979 10974 10967 10962 10954 10947 10937 10928 10922 10918 10913 10908 10905 10905 10903 10904 10905 10904 10904 10904
10964 10977 10976 10982 10986 10991 10994 10998 11001 11003 11003 11005 11007 11007 11006 11005 11005 11006 11005 11006 11004 11002 10999 10998 10998 10997 10995 10992 10988 10983 10977 10971 10966 10960 10952 10943 10934 10929 10927 10922 10916 10914 10912 10910 10910 10909 10909 10909 10908
10955 10965 10966 10977 10979 10985 10987 10990 10995 11000 11002 11002 11004 11005 11005 11002 11002 11005 11005 11005 11004 11002 11000 10999 11000 10999 10997 10996 10991 10987 10980 10977 10972 10965 10957 10949 10944 10938 10935 10930 10926 10922 10920 10918 10916 10914 10914 10913 10912
10948 10956 10957 10963 10969 10976 10980 10984 10988 10992 10996 10998 10999 11002 11003 11000 11001 11003 11003 11003 11004 11002 11001 11000 11000 11000 10999 10998 10994 10991 10986 10983 10978 10971 10965 10958 10951 10946 10939 10935 10934 10931 10928 10927 10925 10922 10921 10919 10917
10941 10946 10953 10955 10959 10966 10972 10978 10982 10985 10990 10992 10994 10997 10998 11000 11000 11000 11000 11002 11002 11002 11001 11001 11001 11001 11000 11000 10996 10992 10989 10987 10983 10977 10970 10965 10960 10953 10946 10942 10939 10936 10934 10932 10930 10928 10926 10924 10921
10934 10939 10944 10948 10951 10957 10963 10969 10974 10977 10982 10986 10989 10992 10992 10996 10998 10999 10999 10999 11001 11000 10999 11001 11002 11002 11001 11001 10997 10995 10992 10991 10986 10982 10975 10970 10966 10959 10954 10950 10946 10942 10939 10935 10934 10933 10931 10927 10925
10928 10931 10934 10940 10943 10949 10955 10960 10964 10971 10976 10980 10984 10987 10988 10990 10992 10996 10998 10999 10999 10999 10999 11000 11002 11003 11003 11002 11000 10998 10994 10993 10989 10986 10979 10975 10972 10967 10961 10956 10952 10947 10944 10940 10939 10936 10932 10930 10927
10916 10922 10925 10932 10936 10940 10946 10949 10951 10961 10970 10975 10978 10981 10983 10986 10988 10990 10994 10996 10996 10997 10998 10999 11001 11003 11003 11003 11001 10999 10996 10995 10993 10988 10982 10979 10976 10971 10966 10962 10957 10953 10950 10946 10942 10938 10934 10930 10925
10903 10908 10914 10920 10926 10932 10938 10944 10946 10956 10964 10972 10976 10977 10980 10982 10984 10987 10991 10992 10993 10995 10996 10997 10999 11003 11004 11004 11002 11001 10998 10997 10996 10991 10986 10982 10980 10976 10971 10966 10962 10957 10953 10951 10948 10944 10940 10934 10929
10894 10896 10904 10910 10918 10924 10933 10938 10944 10947 10952 10960 10968 10972 10975 10977 10979 10982 10986 10989 10990 10992 10994 10996 10998 11002 11003 11004 11002 11002 11000 10998 10998 10993 10989 10987 10984 10980 10975 10970 10966 10962 10959 10955 10950 10946 10943 10939 10935
10880 10885 10895 10902 10910 10917 10924 10930 10937 10944 10949 10954 10961 10963 10968 10971 10974 10977 10980 10985 10986 10989 10993 10995 10997 11000 11003 11003 11003 11003 11001 11000 10999 10994 10990 10989 10987 10982 10977 10972 10967 10963 10959 10956 10951 10947 10942 10938 10934
10869 10878 10887 10895 10901 10909 10912 10921 10931 10939 10943 10947 10953 10958 10962 10966 10969 10973 10976 10979 10981 10986 10991 10994 10997 10999 11001 11003 11003 11003 11002 11000 10999 10996 10993 10991 10989 10985 10980 10976 10973 10968 10962 10957 10953 10949 10944 10939 10933
10865 10874 10885 10890 10897 10897 10905 10914 10921 10932 10935 10939 10945 10952 10955 10960 10964 10966 10969 10973 10976 10978 10984 10991 10996 10998 11000 11001 11002 11002 11001 11001 10999 10998 10996 10994 10993 10987 10982 10979 10975 10971 10966 10960 10955 10951 10947 10941 10936
10857 10865 10878 10886 10889 10892 10902 10907 10914 10922 10929 10935 10936 10944 10947 10954 10958 10960 10963 10968 10971 10975 10978 10985 10993 10995 10998 11000 11001 11001 11000 11001 11000 10999 10997 10996 10994 10988 10985 10981 10977 10972 10967 10962 10957 10952 10948 10942 10935
10852 10864 10864 10871 10876 10883 10897 10901 10909 10916 10923 10928 10929 10937 10942 10947 10951 10955 10958 10962 10967 10971 10975 10979 10986 10992 10995 10997 10999 10999 10999 11000 11000 10998 10997 10996 10993 10989 10986 10982 10978 10973 10968 10963 10957 10952 10948 10942 10935
10848 10846 10855 10868 10871 10880 10893 10898 10903 10910 10914 10921 10927 10931 10936 10940 10945 10950 10953 10958 10963 10967 10972 10978 10982 10987 10991 10995 10997 10997 10997 10998 10998 10997 10996 10994 10992 10989 10985 10982 10978 10974 10969 10963 10958 10953 10948 10941 10935
10837 10847 10853 10861 10864 10876 10884 10895 10899 10904 10909 10911 10922 10925 10930 10935 10939 10945 10950 10953 10960 10966 10971 10974 10978 10981 10985 10990 10993 10994 10995 10995 10996 10995 10994 10993 10991 10988 10985 10981 10977 10974 10969 10963 10958 10953 10947 10939 10933
10827 10835 10840 10852 10864 10871 10876 10886 10890 10897 10902 10906 10915 10920 10926 10933 10935 10939 10945 10950 10957 10960 10966 10970 10974 10976 10981 10985 10989 10991 10991 10992 10993 10992 10992 10991 10989 10986 10983 10980 10976 10972 10968 10963 10957 10952 10946 10939 10932